Location: Clarion
(42.7316°N, 93.7330°W)
Time: 08:28:59
(UTC+00:00)

HBTSS-SV1 - Pass Details

Date: 22 April 2026
Orbit: 583 x 599 km, 40.0° (Epoch: 17 May)

Event Time Altitude Azimuth Distance (km) Brightness Sun altitude
Rises 02:42:47 0° 258° (WSW) 2,815 8.6 -17.0°
Reaches altitude 10° 02:45:06 10° 255° (WSW) 1,912 7.6 -17.3°
Maximum altitude 02:49:27 60° 175° (S) 673 4.5 -18.0°
Enters shadow 02:50:45 40° 116° (ESE) 862 4.8 -18.2°
